TUP9630 URML-UUWW

Flight info

Callsign TUP9630
Flight time 2h 20m
Altitude 34000
Route RIRAN DCT TUVGI DCT EVZUN DCT ZIZAR DCT VAZLU DCT UZZID DCT NOKLI N72 WGD G481 OBABI T619 LUGIL T619 UMRAL/K0869F350 P163 LADIM P163 GOLRI L736 OLOPI
Aircraft B752/M-SDE3FGHIM3RWXY/LB1

Departure

Time 2026-04-30 20:22
Airport Makhachkala Uytash International Airport (URML)

Arrival

Time 2026-04-30 22:42
Airport Vnukovo International Airport (UUWW)
Time Latitude Longitude Altitude Speed Heading
2026-04-30 19:28 42.81862 47.65697 26 ft 0 kts 37°
2026-04-30 20:09 42.81853 47.65687 24 ft 2 kts 37°
2026-04-30 20:10 42.81829 47.65662 24 ft 2 kts 37°
2026-04-30 20:10 42.81817 47.65651 24 ft 2 kts 15°
2026-04-30 20:10 42.81803 47.65651 24 ft 2 kts 338°
2026-04-30 20:11 42.81783 47.65679 24 ft 2 kts 309°
2026-04-30 20:11 42.81778 47.65688 24 ft 0 kts 309°
2026-04-30 20:14 42.81798 47.65654 24 ft 9 kts 309°
2026-04-30 20:14 42.81856 47.65558 24 ft 13 kts 314°
2026-04-30 20:14 42.81933 47.65484 24 ft 15 kts 327°
2026-04-30 20:14 42.81997 47.65431 24 ft 5 kts 328°
2026-04-30 20:15 42.82024 47.65402 24 ft 3 kts 302°
2026-04-30 20:15 42.82026 47.65366 24 ft 4 kts 259°
2026-04-30 20:15 42.82016 47.65337 24 ft 0 kts 237°
2026-04-30 20:15 42.82009 47.65321 24 ft 3 kts 239°
2026-04-30 20:16 42.81998 47.65295 24 ft 2 kts 239°
2026-04-30 20:16 42.81985 47.65268 24 ft 4 kts 238°
2026-04-30 20:16 42.81976 47.65248 24 ft 0 kts 238°
2026-04-30 20:17 42.81966 47.65226 24 ft 8 kts 238°
2026-04-30 20:17 42.81923 47.65133 24 ft 10 kts 239°
2026-04-30 20:17 42.81920 47.65058 24 ft 7 kts 289°
2026-04-30 20:18 42.81952 47.65016 24 ft 6 kts 333°
2026-04-30 20:18 42.81990 47.64986 24 ft 6 kts 328°
2026-04-30 20:18 42.82034 47.64949 24 ft 10 kts 328°
2026-04-30 20:18 42.82072 47.64916 24 ft 4 kts 328°
2026-04-30 20:19 42.82113 47.64883 24 ft 8 kts 328°
2026-04-30 20:19 42.82144 47.64856 24 ft 7 kts 328°
2026-04-30 20:19 42.82192 47.64811 24 ft 1 kts 315°
2026-04-30 20:19 42.82198 47.64808 24 ft 0 kts 356°
2026-04-30 20:20 42.82202 47.64811 24 ft 1 kts 32°
2026-04-30 20:20 42.82205 47.64816 24 ft 0 kts 63°
2026-04-30 20:20 42.82205 47.64823 24 ft 1 kts 99°
2026-04-30 20:20 42.82198 47.64831 24 ft 1 kts 165°
2026-04-30 20:21 42.82174 47.64839 24 ft 4 kts 162°
2026-04-30 20:21 42.82169 47.64842 24 ft 0 kts 153°
2026-04-30 20:21 42.82121 47.64879 24 ft 28 kts 149°
2026-04-30 20:22 42.81731 47.65208 25 ft 103 kts 148°
2026-04-30 20:22 42.80922 47.65884 49 ft 166 kts 149°
2026-04-30 20:22 42.79864 47.66806 576 ft 191 kts 147°
2026-04-30 20:22 42.78725 47.67820 1413 ft 206 kts 146°
2026-04-30 20:23 42.77437 47.68983 1892 ft 243 kts 146°
2026-04-30 20:23 42.76027 47.70252 2836 ft 246 kts 145°
2026-04-30 20:23 42.74781 47.71912 3465 ft 259 kts 118°
2026-04-30 20:23 42.74204 47.74188 4341 ft 260 kts 104°
2026-04-30 20:24 42.73675 47.76570 5090 ft 268 kts 109°
2026-04-30 20:24 42.73045 47.78963 5824 ft 274 kts 110°
2026-04-30 20:24 42.72372 47.81382 6601 ft 279 kts 110°
2026-04-30 20:24 42.71657 47.83860 7407 ft 282 kts 111°
2026-04-30 20:25 42.70202 47.88778 8993 ft 286 kts 112°
2026-04-30 20:25 42.69447 47.91298 9720 ft 290 kts 113°
2026-04-30 20:26 42.67909 47.96397 11060 ft 299 kts 113°
2026-04-30 20:26 42.66910 48.01916 12298 ft 312 kts 84°
2026-04-30 20:26 42.67442 48.04738 12950 ft 315 kts 64°
2026-04-30 20:27 42.70401 48.09065 14161 ft 319 kts 24°
2026-04-30 20:27 42.74684 48.10125 15258 ft 323 kts 348°
2026-04-30 20:28 42.79243 48.08459 15540 ft 360 kts 345°
2026-04-30 20:28 42.84257 48.07347 16757 ft 369 kts 348°
2026-04-30 20:29 42.89409 48.06498 17986 ft 375 kts 349°
2026-04-30 20:30 42.97273 48.05368 19644 ft 385 kts 349°
2026-04-30 20:30 43.05335 48.04258 21213 ft 394 kts 349°
2026-04-30 20:31 43.13594 48.03126 22766 ft 402 kts 349°
2026-04-30 20:32 43.22014 48.01971 24135 ft 410 kts 349°
2026-04-30 20:32 43.27730 48.01186 25049 ft 415 kts 349°
2026-04-30 20:33 43.30624 48.00787 25423 ft 419 kts 348°
2026-04-30 20:33 43.36411 47.99989 26227 ft 424 kts 348°
2026-04-30 20:33 43.39374 47.99580 26685 ft 425 kts 348°
2026-04-30 20:34 43.45242 47.98769 27453 ft 430 kts 348°
2026-04-30 20:34 43.51244 47.97937 28169 ft 435 kts 348°
2026-04-30 20:35 43.54221 47.97524 28569 ft 436 kts 348°
2026-04-30 20:35 43.57284 47.97098 28857 ft 439 kts 348°
2026-04-30 20:35 43.63388 47.96249 29503 ft 444 kts 348°
2026-04-30 20:36 43.66453 47.95823 29905 ft 444 kts 348°
2026-04-30 20:36 43.69546 47.95392 30230 ft 446 kts 347°
2026-04-30 20:36 43.75745 47.94525 30798 ft 450 kts 347°
2026-04-30 20:37 43.78883 47.94085 31022 ft 454 kts 347°
2026-04-30 20:37 43.82008 47.93649 31334 ft 454 kts 347°
2026-04-30 20:37 43.85151 47.93208 31564 ft 457 kts 347°
2026-04-30 20:37 43.88301 47.92767 31883 ft 457 kts 347°
2026-04-30 20:38 43.91492 47.92317 32134 ft 458 kts 347°
2026-04-30 20:38 43.94656 47.91872 32320 ft 461 kts 347°
2026-04-30 20:38 43.97856 47.91423 32702 ft 458 kts 347°
2026-04-30 20:39 44.04194 47.90530 33290 ft 457 kts 347°
2026-04-30 20:39 44.07310 47.90090 33596 ft 456 kts 347°
2026-04-30 20:39 44.10474 47.89643 33898 ft 454 kts 347°
2026-04-30 20:40 44.16730 47.88758 34125 ft 451 kts 347°
2026-04-30 20:40 44.22971 47.87871 34126 ft 451 kts 346°
2026-04-30 20:41 44.32331 47.86539 34124 ft 450 kts 346°
2026-04-30 20:41 44.38557 47.85648 34123 ft 452 kts 346°
2026-04-30 20:42 44.44795 47.84758 34119 ft 451 kts 346°
2026-04-30 20:43 44.54154 47.83414 34258 ft 453 kts 346°
2026-04-30 20:43 44.57267 47.82967 34438 ft 454 kts 346°
2026-04-30 20:43 44.60422 47.82515 34697 ft 452 kts 346°
2026-04-30 20:44 44.66685 47.81611 34966 ft 453 kts 346°
2026-04-30 20:44 44.69806 47.81162 35090 ft 450 kts 346°
2026-04-30 20:45 44.82314 47.79350 35110 ft 454 kts 346°
2026-04-30 20:45 44.88562 47.78444 35098 ft 453 kts 346°
2026-04-30 20:46 45.01103 47.76618 35113 ft 452 kts 346°
2026-04-30 20:47 45.10504 47.75243 35111 ft 453 kts 346°
2026-04-30 20:48 45.19877 47.73869 35118 ft 451 kts 345°
2026-04-30 20:48 45.26120 47.72948 35122 ft 452 kts 345°
2026-04-30 20:49 45.32394 47.72024 35118 ft 451 kts 345°
2026-04-30 20:50 45.41769 47.70638 35121 ft 451 kts 345°
2026-04-30 20:50 45.48027 47.69710 35119 ft 452 kts 345°
2026-04-30 20:51 45.54253 47.68784 35124 ft 451 kts 345°
2026-04-30 20:51 45.63635 47.67386 35129 ft 452 kts 345°
2026-04-30 20:52 45.69857 47.66458 35125 ft 450 kts 345°
2026-04-30 20:53 45.79194 47.65057 35126 ft 453 kts 345°
2026-04-30 20:53 45.85464 47.64116 35128 ft 451 kts 345°
2026-04-30 20:54 45.94816 47.62706 35131 ft 452 kts 345°
2026-04-30 20:55 46.04135 47.61298 35120 ft 449 kts 345°
2026-04-30 20:55 46.10353 47.60352 35134 ft 452 kts 345°
2026-04-30 20:56 46.19600 47.58410 35134 ft 437 kts 333°
2026-04-30 20:56 46.24852 47.54455 35148 ft 417 kts 314°
2026-04-30 20:57 46.26921 47.51667 35144 ft 410 kts 305°
2026-04-30 20:57 46.30480 47.45264 35133 ft 406 kts 300°
2026-04-30 20:58 46.35273 47.35341 35131 ft 403 kts 298°
2026-04-30 20:58 46.38367 47.28568 35132 ft 404 kts 297°
2026-04-30 20:59 46.42943 47.18339 35143 ft 404 kts 297°
2026-04-30 21:00 46.49021 47.04585 35139 ft 406 kts 297°
2026-04-30 21:01 46.53568 46.94236 35150 ft 410 kts 296°
2026-04-30 21:02 46.58133 46.83805 35144 ft 407 kts 297°
2026-04-30 21:02 46.61147 46.76894 35129 ft 407 kts 297°
2026-04-30 21:03 46.64172 46.69941 35144 ft 408 kts 296°
2026-04-30 21:03 46.67210 46.62941 35152 ft 409 kts 297°
2026-04-30 21:04 46.70216 46.55996 35160 ft 408 kts 296°
2026-04-30 21:04 46.74749 46.45491 35148 ft 406 kts 297°
2026-04-30 21:05 46.77733 46.38549 35149 ft 408 kts 297°
2026-04-30 21:05 46.80741 46.31538 35175 ft 409 kts 296°
2026-04-30 21:06 46.83743 46.24526 35147 ft 407 kts 296°
2026-04-30 21:06 46.86737 46.17509 35150 ft 409 kts 296°
2026-04-30 21:07 46.89747 46.10439 35154 ft 412 kts 296°
2026-04-30 21:07 46.93492 46.04065 35170 ft 424 kts 315°
2026-04-30 21:08 46.98685 45.99668 35157 ft 437 kts 327°
2026-04-30 21:08 47.04151 45.95861 35156 ft 438 kts 327°
2026-04-30 21:09 47.09629 45.92030 35151 ft 436 kts 327°
2026-04-30 21:09 47.14671 45.88490 35157 ft 440 kts 327°
2026-04-30 21:10 47.20143 45.84644 35153 ft 438 kts 327°
2026-04-30 21:10 47.25633 45.80774 35155 ft 439 kts 327°
2026-04-30 21:11 47.31149 45.76877 35149 ft 439 kts 327°
2026-04-30 21:11 47.36647 45.72984 35142 ft 440 kts 327°
2026-04-30 21:12 47.42144 45.69081 35155 ft 441 kts 327°
2026-04-30 21:12 47.47656 45.65161 35146 ft 439 kts 327°
2026-04-30 21:13 47.53171 45.61227 35147 ft 441 kts 327°
2026-04-30 21:13 47.58682 45.57289 35149 ft 443 kts 327°
2026-04-30 21:14 47.64213 45.53326 35144 ft 441 kts 327°
2026-04-30 21:14 47.69721 45.49369 35151 ft 443 kts 327°
2026-04-30 21:15 47.75251 45.45390 35145 ft 442 kts 327°
2026-04-30 21:15 47.80496 45.40857 35149 ft 431 kts 314°
2026-04-30 21:16 47.84949 45.35037 35157 ft 429 kts 312°
2026-04-30 21:16 47.89374 45.29132 35150 ft 428 kts 310°
2026-04-30 21:17 47.93805 45.23157 35161 ft 431 kts 310°
2026-04-30 21:17 47.98214 45.17181 35143 ft 429 kts 311°
2026-04-30 21:18 48.02670 45.11305 35152 ft 434 kts 316°
2026-04-30 21:18 48.07698 45.06188 35156 ft 438 kts 319°
2026-04-30 21:19 48.12753 45.01090 35134 ft 437 kts 319°
2026-04-30 21:19 48.17786 44.96017 35140 ft 440 kts 319°
2026-04-30 21:20 48.22847 44.90910 35148 ft 441 kts 319°
2026-04-30 21:20 48.27942 44.85762 35138 ft 440 kts 319°
2026-04-30 21:21 48.33019 44.80615 35143 ft 442 kts 319°
2026-04-30 21:22 48.40617 44.72893 35127 ft 441 kts 320°
2026-04-30 21:23 48.50742 44.62558 35129 ft 443 kts 320°
2026-04-30 21:23 48.58390 44.54707 35119 ft 442 kts 320°
2026-04-30 21:24 48.63451 44.49496 35123 ft 445 kts 320°
2026-04-30 21:24 48.68541 44.44244 35139 ft 443 kts 320°
2026-04-30 21:25 48.76157 44.36364 35120 ft 445 kts 322°
2026-04-30 21:26 48.84753 44.30645 35151 ft 455 kts 333°
2026-04-30 21:27 48.93651 44.25570 35140 ft 455 kts 333°
2026-04-30 21:27 48.99577 44.22199 35143 ft 457 kts 333°
2026-04-30 21:28 49.08441 44.17148 35138 ft 456 kts 334°
2026-04-30 21:29 49.17373 44.12042 35132 ft 456 kts 334°
2026-04-30 21:30 49.32168 44.03542 35135 ft 457 kts 334°
2026-04-30 21:31 49.47043 43.94940 35120 ft 458 kts 334°
2026-04-30 21:32 49.55613 43.88931 35123 ft 451 kts 326°
2026-04-30 21:32 49.61134 43.84321 35116 ft 451 kts 327°
2026-04-30 21:33 49.69343 43.77436 34166 ft 443 kts 326°
2026-04-30 21:33 49.71954 43.75244 34130 ft 426 kts 326°
2026-04-30 21:34 49.74555 43.73048 34123 ft 429 kts 326°
2026-04-30 21:34 49.82529 43.66301 34118 ft 443 kts 326°
2026-04-30 21:35 49.87986 43.61676 34130 ft 451 kts 327°
2026-04-30 21:35 49.93471 43.57016 34112 ft 450 kts 327°
2026-04-30 21:36 49.98951 43.52347 34114 ft 450 kts 327°
2026-04-30 21:37 50.09922 43.42963 34115 ft 452 kts 327°
2026-04-30 21:37 50.15402 43.38255 34118 ft 452 kts 327°
2026-04-30 21:38 50.20825 43.33584 34125 ft 453 kts 326°
2026-04-30 21:38 50.26305 43.28853 34127 ft 452 kts 326°
2026-04-30 21:39 50.31784 43.24109 34115 ft 452 kts 327°
2026-04-30 21:39 50.37280 43.19338 34120 ft 454 kts 327°
2026-04-30 21:40 50.42778 43.14553 34121 ft 453 kts 327°
2026-04-30 21:40 50.48286 43.09747 34120 ft 454 kts 327°
2026-04-30 21:41 50.53789 43.04931 34126 ft 454 kts 327°
2026-04-30 21:41 50.59283 43.00110 34115 ft 455 kts 327°
2026-04-30 21:42 50.64809 42.95248 34118 ft 455 kts 327°
2026-04-30 21:42 50.70424 42.90642 34115 ft 458 kts 335°
2026-04-30 21:43 50.76403 42.87268 34120 ft 461 kts 337°
2026-04-30 21:43 50.82429 42.83890 34123 ft 461 kts 337°
2026-04-30 21:44 50.88458 42.80514 34118 ft 461 kts 337°
2026-04-30 21:44 50.94494 42.77129 34113 ft 461 kts 337°
2026-04-30 21:45 51.00503 42.73753 34122 ft 461 kts 337°
2026-04-30 21:45 51.06544 42.70349 34123 ft 461 kts 337°
2026-04-30 21:46 51.12570 42.66945 34119 ft 460 kts 337°
2026-04-30 21:46 51.18595 42.63532 34118 ft 462 kts 338°
2026-04-30 21:47 51.24656 42.60089 34121 ft 462 kts 338°
2026-04-30 21:47 51.30674 42.56661 34117 ft 462 kts 338°
2026-04-30 21:48 51.36742 42.53194 34122 ft 463 kts 338°
2026-04-30 21:48 51.42784 42.49733 34120 ft 463 kts 338°
2026-04-30 21:49 51.48820 42.46267 34116 ft 462 kts 338°
2026-04-30 21:49 51.54838 42.42799 34117 ft 462 kts 338°
2026-04-30 21:50 51.60882 42.39307 34119 ft 462 kts 338°
2026-04-30 21:50 51.66925 42.35806 34128 ft 463 kts 338°
2026-04-30 21:51 51.72918 42.32325 34128 ft 464 kts 337°
2026-04-30 21:51 51.78943 42.28814 34129 ft 464 kts 337°
2026-04-30 21:52 51.85017 42.25265 34123 ft 464 kts 338°
2026-04-30 21:52 51.91073 42.21717 34123 ft 464 kts 338°
2026-04-30 21:53 51.97134 42.18155 34120 ft 462 kts 338°
2026-04-30 21:53 52.03177 42.14593 34125 ft 463 kts 338°
2026-04-30 21:54 52.09184 42.11043 34118 ft 463 kts 338°
2026-04-30 21:54 52.15069 42.07767 34120 ft 464 kts 339°
2026-04-30 21:55 52.21165 42.04402 34123 ft 464 kts 339°
2026-04-30 21:55 52.27271 42.01023 34117 ft 464 kts 339°
2026-04-30 21:56 52.33388 41.97619 34122 ft 464 kts 339°
2026-04-30 21:56 52.39415 41.94033 34125 ft 462 kts 335°
2026-04-30 21:57 52.45367 41.89964 34125 ft 463 kts 335°
2026-04-30 21:57 52.51295 41.85925 34126 ft 462 kts 335°
2026-04-30 21:58 52.57238 41.81868 34126 ft 462 kts 336°
2026-04-30 21:58 52.63151 41.77822 34129 ft 462 kts 336°
2026-04-30 21:59 52.69097 41.73741 34130 ft 463 kts 336°
2026-04-30 22:00 52.77498 41.66298 34146 ft 459 kts 318°
2026-04-30 22:00 52.83829 41.54573 34143 ft 458 kts 310°
2026-04-30 22:01 52.88033 41.46724 34144 ft 458 kts 311°
2026-04-30 22:01 52.92313 41.38887 34142 ft 458 kts 311°
2026-04-30 22:02 52.96574 41.31132 34143 ft 459 kts 311°
2026-04-30 22:02 53.00877 41.23301 34141 ft 459 kts 311°
2026-04-30 22:03 53.05155 41.15503 34142 ft 459 kts 311°
2026-04-30 22:03 53.09443 41.07665 34146 ft 459 kts 311°
2026-04-30 22:04 53.13744 40.99780 34148 ft 459 kts 311°
2026-04-30 22:05 53.20140 40.88006 34150 ft 458 kts 311°
2026-04-30 22:05 53.24411 40.80114 34150 ft 458 kts 311°
2026-04-30 22:06 53.28640 40.72273 34159 ft 459 kts 311°
2026-04-30 22:06 53.34913 40.60597 34155 ft 458 kts 311°
2026-04-30 22:07 53.39154 40.52671 34154 ft 458 kts 312°
2026-04-30 22:07 53.43366 40.44777 34155 ft 458 kts 312°
2026-04-30 22:08 53.47601 40.36810 34158 ft 458 kts 312°
2026-04-30 22:08 53.51818 40.28855 34159 ft 459 kts 311°
2026-04-30 22:09 53.56063 40.20817 34161 ft 458 kts 311°
2026-04-30 22:09 53.60255 40.12857 34163 ft 458 kts 311°
2026-04-30 22:10 53.64486 40.04794 34167 ft 459 kts 311°
2026-04-30 22:10 53.68689 39.96759 34170 ft 459 kts 311°
2026-04-30 22:11 53.75016 39.84614 34176 ft 460 kts 312°
2026-04-30 22:12 53.79210 39.76530 34171 ft 458 kts 312°
2026-04-30 22:12 53.83371 39.68483 34171 ft 458 kts 312°
2026-04-30 22:13 53.87566 39.60343 34174 ft 458 kts 312°
2026-04-30 22:13 53.91741 39.52214 34173 ft 458 kts 312°
2026-04-30 22:14 53.95909 39.44075 34176 ft 459 kts 312°
2026-04-30 22:14 54.00008 39.36039 34147 ft 435 kts 312°
2026-04-30 22:14 54.01956 39.32211 33895 ft 427 kts 311°
2026-04-30 22:15 54.03886 39.28412 33199 ft 430 kts 312°
2026-04-30 22:15 54.05837 39.24570 32735 ft 429 kts 312°
2026-04-30 22:15 54.07792 39.20710 32248 ft 429 kts 312°
2026-04-30 22:15 54.09729 39.16881 31768 ft 428 kts 312°
2026-04-30 22:16 54.11644 39.13090 31212 ft 427 kts 312°
2026-04-30 22:16 54.13576 39.09259 30615 ft 428 kts 312°
2026-04-30 22:17 54.19326 38.97825 28826 ft 414 kts 312°
2026-04-30 22:17 54.21184 38.94117 28158 ft 409 kts 312°
2026-04-30 22:17 54.25071 38.87465 26951 ft 388 kts 323°
2026-04-30 22:18 54.27134 38.84663 26580 ft 376 kts 323°
2026-04-30 22:18 54.31222 38.79085 25696 ft 381 kts 323°
2026-04-30 22:19 54.35321 38.73471 24753 ft 376 kts 323°
2026-04-30 22:19 54.37361 38.70669 24241 ft 370 kts 323°
2026-04-30 22:19 54.41281 38.65276 23286 ft 362 kts 323°
2026-04-30 22:20 54.43252 38.62561 22817 ft 361 kts 323°
2026-04-30 22:20 54.47123 38.57215 21888 ft 356 kts 323°
2026-04-30 22:20 54.49033 38.54573 21434 ft 353 kts 323°
2026-04-30 22:21 54.50945 38.51924 20980 ft 349 kts 323°
2026-04-30 22:21 54.52814 38.49331 20538 ft 347 kts 323°
2026-04-30 22:21 54.54676 38.46745 20102 ft 344 kts 323°
2026-04-30 22:21 54.56525 38.44175 19668 ft 340 kts 323°
2026-04-30 22:22 54.58331 38.41662 19244 ft 336 kts 323°
2026-04-30 22:22 54.60135 38.39148 18823 ft 332 kts 323°
2026-04-30 22:22 54.61913 38.36668 18415 ft 331 kts 323°
2026-04-30 22:22 54.63715 38.34151 18006 ft 330 kts 323°
2026-04-30 22:23 54.65471 38.31696 17602 ft 329 kts 322°
2026-04-30 22:23 54.67257 38.29195 17194 ft 327 kts 322°
2026-04-30 22:23 54.68992 38.26763 16802 ft 324 kts 322°
2026-04-30 22:23 54.70729 38.24326 16407 ft 322 kts 322°
2026-04-30 22:24 54.72456 38.21899 16021 ft 320 kts 322°
2026-04-30 22:24 54.74192 38.19459 15633 ft 318 kts 322°
2026-04-30 22:24 54.75899 38.17055 15252 ft 317 kts 322°
2026-04-30 22:24 54.77588 38.14675 14878 ft 316 kts 322°
2026-04-30 22:25 54.79290 38.12273 14504 ft 314 kts 322°
2026-04-30 22:25 54.80969 38.09902 14137 ft 313 kts 322°
2026-04-30 22:25 54.82658 38.07511 13768 ft 311 kts 322°
2026-04-30 22:25 54.84331 38.05142 13396 ft 309 kts 322°
2026-04-30 22:26 54.87627 38.00467 12676 ft 305 kts 322°
2026-04-30 22:26 54.89246 37.98169 12322 ft 304 kts 322°
2026-04-30 22:26 54.90881 37.95844 11965 ft 301 kts 322°
2026-04-30 22:27 54.92491 37.93552 11609 ft 299 kts 322°
2026-04-30 22:27 54.94094 37.91267 11260 ft 297 kts 322°
2026-04-30 22:27 54.97257 37.86752 10541 ft 296 kts 322°
2026-04-30 22:28 55.00329 37.82354 10065 ft 272 kts 322°
2026-04-30 22:28 55.01765 37.80298 9880 ft 264 kts 322°
2026-04-30 22:29 55.05884 37.74390 9157 ft 255 kts 322°
2026-04-30 22:29 55.07245 37.72434 8932 ft 258 kts 322°
2026-04-30 22:30 55.12578 37.64745 8092 ft 232 kts 322°
2026-04-30 22:31 55.16345 37.59303 7535 ft 235 kts 323°
2026-04-30 22:32 55.20089 37.53879 6925 ft 233 kts 323°
2026-04-30 22:32 55.22577 37.50267 6454 ft 231 kts 322°
2026-04-30 22:33 55.26234 37.44944 5756 ft 221 kts 322°
2026-04-30 22:33 55.28553 37.41562 5240 ft 215 kts 322°
2026-04-30 22:34 55.31976 37.36406 4535 ft 217 kts 315°
2026-04-30 22:35 55.34042 37.32603 4216 ft 215 kts 315°
2026-04-30 22:36 55.38137 37.25045 3600 ft 214 kts 314°
2026-04-30 22:36 55.39143 37.23182 3615 ft 208 kts 314°
2026-04-30 22:37 55.42188 37.17529 3620 ft 214 kts 314°
2026-04-30 22:37 55.43328 37.15897 3617 ft 212 kts 339°
2026-04-30 22:37 55.46147 37.16221 3465 ft 205 kts 23°
2026-04-30 22:38 55.48506 37.18059 2986 ft 167 kts 20°
2026-04-30 22:38 55.50465 37.19536 2533 ft 145 kts 20°
2026-04-30 22:39 55.51390 37.20233 2337 ft 144 kts 20°
2026-04-30 22:39 55.53930 37.22165 1775 ft 142 kts 20°
2026-04-30 22:40 55.56648 37.24260 1191 ft 143 kts 19°
2026-04-30 22:41 55.59388 37.26334 705 ft 136 kts 23°
2026-04-30 22:41 55.60505 37.27168 701 ft 55 kts 22°
2026-04-30 22:42 55.60726 37.27525 700 ft 10 kts 104°
2026-04-30 22:43 55.60749 37.27685 700 ft 6 kts 28°
2026-04-30 22:43 55.60781 37.27784 701 ft 5 kts 108°
2026-04-30 22:44 55.60701 37.27913 700 ft 10 kts 136°
2026-04-30 22:45 55.60701 37.28094 701 ft 3 kts 44°
2026-04-30 22:45 55.60705 37.28101 701 ft 0 kts 45°